User: anonymous   Login
Location: Unspecified
(0.0000°N, 0.0000°E)
Time: 22:45:25
(UTC+00:00)
Language:

WORLDVIEW-4 - Orbit

View from above orbital plane
View from above orbital plane
View from above satellite
View from above satellite

Ground track
Ground track

The orbit data is extracted from the following two-line orbital elements,

1 41848U 16067A   19290.61724380  .00003042  00000-0  10000-3 0  9990
2 41848  97.8527  15.9272 0034450 110.2265 250.2435 15.31848374159295
Epoch (UTC): 17 October 2019 14:48:49
Eccentricity: 0.0034450
inclination: 97.8527°
perigee height: 447 km
apogee height: 494 km
right ascension of ascending node: 15.9272°
argument of perigee: 110.2265°
revolutions per day: 15.31848374
mean anomaly at epoch: 250.2435°
orbit number at epoch: 15929

The dashed part of the orbit path shows where the satellite is in the earth's shadow,  

DLR